FW8870 Weather Reports


Display with metric or nautical units.
time (UTC)temp
F
wind
direction
speed
MPH
gust
MPH
rain 1hr
in
rain 24hr
in
rain mn
in
humidity
%
barometer
mb
20260503025313 67 333 0.0 0.0 0.00 0.00 0.00 72 1015.1
20260503024810 68 333 0.0 0.0 0.00 0.00 0.00 70 1015.4
20260503024306 68 333 0.0 0.0 0.00 0.00 0.00 70 1015.0
20260503023803 68 333 0.0 0.0 0.00 0.00 0.00 68 1014.9
20260503023301 68 333 0.0 0.0 0.00 0.00 0.00 68 1015.0
20260503022757 68 333 0.0 0.0 0.00 0.00 0.00 68 1015.0
20260503022257 69 331 0.0 0.0 0.00 0.00 0.00 69 1015.0
20260503021754 69 330 0.0 0.0 0.00 0.00 0.00 68 1015.1
20260503021249 69 331 0.0 0.0 0.00 0.00 0.00 66 1014.9
20260503020748 69 326 0.0 0.0 0.00 0.00 0.00 65 1015.1
20260503020245 70 330 0.0 0.0 0.00 0.00 0.00 66 1015.0
20260503015741 70 320 0.0 0.0 0.00 0.00 0.00 63 1015.2
20260503015238 70 327 0.0 0.0 0.00 0.00 0.00 63 1015.2
20260503014734 71 343 0.0 0.0 0.00 0.00 0.00 59 1015.3
20260503014232 71 318 0.0 0.0 0.00 0.00 0.00 61 1015.3
20260503013729 73 319 0.0 0.0 0.00 0.00 0.00 57 1015.1
20260503013227 75 315 0.0 0.0 0.00 0.00 0.00 58 1015.2
20260503012724 75 304 0.0 0.0 0.00 0.00 0.00 51 1015.4
20260503012221 75 318 0.0 0.0 0.00 0.00 0.00 54 1015.3
20260503011717 75 312 0.0 0.0 0.00 0.00 0.00 57 1015.2
20260503011215 75 15 0.0 0.0 0.00 0.00 0.00 54 1015.3
20260503010710 75 323 0.0 0.0 0.00 0.00 0.00 53 1015.4
20260503010208 75 325 0.0 0.0 0.00 0.00 0.00 51 1015.4
20260503005705 75 9 0.0 0.0 0.00 0.00 0.00 54 1015.3
20260503005202 75 317 0.0 0.0 0.00 0.00 0.00 53 1015.4
20260503004658 75 27 0.0 0.0 0.00 0.00 0.00 52 1015.4
20260503004157 75 13 0.0 0.0 0.00 0.00 0.00 54 1015.2
20260503003654 76 332 0.0 0.0 0.00 0.00 0.00 56 1015.3
20260503003150 77 291 0.0 0.0 0.00 0.00 0.00 52 1015.3
20260503002647 77 311 0.0 0.0 0.00 0.00 0.00 53 1015.6
20260503002144 77 294 0.0 0.0 0.00 0.00 0.00 54 1015.5
20260503001640 77 306 0.0 0.0 0.00 0.00 0.00 51 1015.3
20260503001137 78 301 0.0 0.0 0.00 0.00 0.00 53 1015.4
20260503000635 78 298 0.0 0.0 0.00 0.00 0.00 52 1015.6
20260503000132 78 305 0.0 0.0 0.00 0.00 0.00 56 1015.5
20260502235628 77 290 0.0 0.0 0.00 0.00 0.00 55 1015.5
20260502235127 77 356 0.0 0.0 0.00 0.00 0.00 59 1015.6
20260502234622 77 33 0.0 0.0 0.00 0.00 0.00 56 1015.6
20260502234120 77 2 1.0 2.0 0.00 0.00 0.00 55 1015.5
20260502233615 77 325 0.0 0.0 0.00 0.00 0.00 53 1015.6
20260502233113 77 1 0.0 0.0 0.00 0.00 0.00 57 1015.5
20260502232608 77 294 0.0 0.0 0.00 0.00 0.00 56 1015.7
20260502232106 77 2 0.0 0.0 0.00 0.00 0.00 59 1015.6
20260502231603 77 326 0.0 0.0 0.00 0.00 0.00 58 1015.6
20260502231101 77 18 0.0 0.0 0.00 0.00 0.00 56 1015.9
20260502230559 77 164 0.0 0.0 0.00 0.00 0.00 58 1015.7
20260502230057 78 301 0.0 0.0 0.00 0.00 0.00 60 1015.6
20260502225552 78 290 0.0 0.0 0.00 0.00 0.00 55 1016.0
20260502225050 78 319 0.0 0.0 0.00 0.00 0.00 54 1016.0
20260502224545 78 345 0.0 0.0 0.00 0.00 0.00 52 1015.8
20260502224043 78 285 0.0 0.0 0.00 0.00 0.00 61 1015.9
20260502223540 78 54 0.0 0.0 0.00 0.00 0.00 53 1016.1
20260502223039 78 6 2.0 5.0 0.00 0.00 0.00 53 1015.9
20260502222535 79 180 0.0 2.0 0.00 0.00 0.00 53 1016.3
20260502222032 78 268 0.0 0.0 0.00 0.00 0.00 60 1016.2
20260502221527 78 57 0.0 0.0 0.00 0.00 0.00 58 1016.4
20260502221025 77 267 0.0 0.0 0.00 0.00 0.00 61 1016.2
20260502220520 77 278 0.0 0.0 0.00 0.00 0.00 61 1016.5
20260502220018 77 214 0.0 0.0 0.00 0.00 0.00 63 1016.5
20260502215515 78 242 3.0 6.0 0.00 0.00 0.00 58 1016.4
20260502215011 77 327 0.0 0.0 0.00 0.00 0.00 62 1016.6
20260502214509 78 242 0.0 0.0 0.00 0.00 0.00 60 1016.7
20260502214006 78 326 0.0 0.0 0.00 0.00 0.00 54 1016.7
20260502213502 78 309 0.0 0.0 0.00 0.00 0.00 55 1016.6
20260502213001 78 81 0.0 0.0 0.00 0.00 0.00 54 1016.7
20260502212459 78 150 0.0 0.0 0.00 0.00 0.00 57 1016.9
20260502211956 78 1 0.0 1.0 0.00 0.00 0.00 51 1016.8
20260502211452 79 315 0.0 0.0 0.00 0.00 0.00 55 1017.1
20260502210949 78 299 1.0 3.0 0.00 0.00 0.00 48 1017.0
20260502210446 78 210 0.0 0.0 0.00 0.00 0.00 53 1017.1
20260502205943 77 77 0.0 0.0 0.00 0.00 0.00 54 1017.0
20260502205439 77 100 0.0 1.0 0.00 0.00 0.00 49 1016.9
20260502204937 77 260 0.0 0.0 0.00 0.00 0.00 50 1017.0
20260502204433 77 157 5.0 8.0 0.00 0.00 0.00 48 1017.3
20260502203931 76 127 0.0 0.0 0.00 0.00 0.00 52 1017.3
20260502203428 75 21 0.0 1.0 0.00 0.00 0.00 54 1017.4
20260502202924 75 310 0.0 0.0 0.00 0.00 0.00 54 1017.5
20260502202421 75 335 0.0 0.0 0.00 0.00 0.00 52 1017.6
20260502201920 75 309 0.0 0.0 0.00 0.00 0.00 55 1017.6
20260502201415 75 160 1.0 1.0 0.00 0.00 0.00 53 1017.7
20260502200912 75 327 0.0 0.0 0.00 0.00 0.00 53 1017.8
20260502200408 75 91 0.0 0.0 0.00 0.00 0.00 55 1017.8
20260502195906 74 231 0.0 0.0 0.00 0.00 0.00 62 1017.7
20260502195403 74 232 0.0 2.0 0.00 0.00 0.00 61 1017.9
20260502194859 73 356 0.0 0.0 0.00 0.00 0.00 59 1018.2
20260502194356 74 119 0.0 0.0 0.00 0.00 0.00 58 1017.9
20260502193852 73 358 2.0 6.0 0.00 0.00 0.00 59 1018.0
20260502193349 74 13 0.0 0.0 0.00 0.00 0.00 58 1018.0
20260502192844 73 307 0.0 0.0 0.00 0.00 0.00 60 1018.0
20260502192342 72 346 0.0 0.0 0.00 0.00 0.00 59 1018.2
20260502191839 72 345 1.0 3.0 0.00 0.00 0.00 58 1018.2
20260502191337 72 21 1.0 2.0 0.00 0.00 0.00 58 1018.6
20260502190834 71 325 0.0 0.0 0.00 0.00 0.00 62 1018.5
20260502190331 71 35 0.0 0.0 0.00 0.00 0.00 63 1018.3
20260502185827 72 3 0.0 0.0 0.00 0.00 0.00 67 1018.5
20260502185322 71 325 0.0 0.0 0.00 0.00 0.00 65 1018.4
20260502184820 70 281 0.0 2.0 0.00 0.00 0.00 62 1018.7
20260502184315 70 276 0.0 0.0 0.00 0.00 0.00 66 1018.6
20260502183812 69 154 0.0 1.0 0.00 0.00 0.00 66 1018.6
20260502183308 69 331 0.0 0.0 0.00 0.00 0.00 73 1018.8
20260502182803 69 340 0.0 0.0 0.00 0.00 0.00 72 1018.9
20260502182259 69 16 0.0 0.0 0.00 0.00 0.00 73 1018.8
20260502181755 68 220 0.0 0.0 0.00 0.00 0.00 72 1019.0
20260502181249 69 139 0.0 0.0 0.00 0.00 0.00 72 1019.1
20260502180746 69 301 0.0 0.0 0.00 0.00 0.00 70 1019.0
20260502180243 68 136 0.0 0.0 0.00 0.00 0.00 76 1019.0
20260502170208 64 26 0.0 0.0 0.00 0.00 0.00 77 1019.2
20260502164155 64 319 0.0 0.0 0.00 0.00 0.00 75 1019.3
20260502163650 63 330 0.0 0.0 0.00 0.00 0.00 79 1019.5
20260502163147 64 321 0.0 0.0 0.00 0.00 0.00 78 1019.9
20260502162644 63 352 0.0 0.0 0.00 0.00 0.00 81 1019.7
20260502162141 63 328 0.0 0.0 0.00 0.00 0.00 82 1019.7
20260502161638 62 344 0.0 0.0 0.00 0.00 0.00 81 1019.9
20260502161135 60 12 0.0 0.0 0.00 0.00 0.00 84 1019.8
20260502160633 59 346 0.0 0.0 0.00 0.00 0.00 87 1020.0
20260502160131 59 346 0.0 0.0 0.00 0.00 0.00 86 1019.9
20260502152051 55 345 0.0 0.0 0.00 0.00 0.00 92 1020.2
20260502151548 55 345 0.0 0.0 0.00 0.00 0.00 94 1020.1
20260502151046 55 338 0.0 0.0 0.00 0.00 0.00 95 1020.2
20260502150543 54 341 0.0 0.0 0.00 0.00 0.00 95 1019.9
20260502130428 50 267 0.0 0.0 0.00 0.00 0.00 99 1019.3
20260502123410 50 337 0.0 0.0 0.00 0.00 0.00 99 1018.9
20260502122908 50 347 0.0 0.0 0.00 0.00 0.00 99 1019.1
20260502122404 49 338 0.0 0.0 0.00 0.00 0.00 99 1019.2
20260502121902 49 338 0.0 0.0 0.00 0.00 0.00 99 1019.0
20260502121359 49 336 0.0 0.0 0.00 0.00 0.00 99 1018.8
20260502120857 49 336 0.0 0.0 0.00 0.00 0.00 99 1018.9
20260502120352 49 336 0.0 0.0 0.00 0.00 0.00 99 1019.0
20260502115850 49 336 0.0 0.0 0.00 0.00 0.00 99 1018.9
20260502115347 49 335 0.0 0.0 0.00 0.00 0.00 99 1018.9
20260502114843 49 336 0.0 0.0 0.00 0.00 0.00 99 1018.8
20260502114340 49 336 0.0 0.0 0.00 0.00 0.00 99 1018.6
20260502113837 50 336 0.0 0.0 0.00 0.00 0.00 99 1018.7
20260502113335 50 311 0.0 0.0 0.00 0.00 0.00 99 1018.6
20260502112833 50 317 0.0 0.0 0.00 0.00 0.00 99 1018.6
20260502112330 50 234 0.0 0.0 0.00 0.00 0.00 99 1018.4
20260502111827 51 234 0.0 0.0 0.00 0.00 0.00 99 1018.2
20260502111325 51 234 0.0 0.0 0.00 0.00 0.00 98 1018.4
20260502110823 52 228 0.0 0.0 0.00 0.00 0.00 96 1018.4
20260502110320 53 87 0.0 0.0 0.00 0.00 0.00 94 1018.4
20260502105817 51 168 0.0 0.0 0.00 0.00 0.00 99 1018.4
20260502105314 50 117 0.0 0.0 0.00 0.00 0.00 99 1018.3
20260502104812 50 322 0.0 0.0 0.00 0.00 0.00 99 1018.4
20260502104309 50 317 0.0 0.0 0.00 0.00 0.00 99 1018.6
20260502103806 51 343 0.0 0.0 0.00 0.00 0.00 99 1018.5
20260502103303 51 314 0.0 0.0 0.00 0.00 0.00 99 1018.4
20260502102801 51 307 0.0 0.0 0.00 0.00 0.00 98 1018.5
20260502102257 51 327 0.0 0.0 0.00 0.00 0.00 98 1018.3
20260502101755 52 327 0.0 0.0 0.00 0.00 0.00 97 1018.3
20260502101253 51 325 0.0 0.0 0.00 0.00 0.00 97 1018.2
20260502100751 52 325 0.0 0.0 0.00 0.00 0.00 97 1018.4
20260502100249 52 325 0.0 0.0 0.00 0.00 0.00 96 1018.1
20260502091223 53 342 0.0 0.0 0.00 0.00 0.00 96 1018.1
20260502090721 53 315 0.0 0.0 0.00 0.00 0.00 96 1018.2
20260502090217 52 316 0.0 0.0 0.00 0.00 0.00 99 1018.2
20260502071113 55 321 0.0 0.0 0.00 0.00 0.00 91 1017.9
20260502070611 55 321 0.0 0.0 0.00 0.00 0.00 91 1017.9
20260502070109 55 321 0.0 0.0 0.00 0.00 0.00 92 1017.9
20260502065607 56 321 0.0 0.0 0.00 0.00 0.00 92 1017.7
20260502065104 55 322 0.0 0.0 0.00 0.00 0.00 89 1017.6
20260502064603 55 321 0.0 0.0 0.00 0.00 0.00 92 1017.8
20260502064059 55 322 0.0 0.0 0.00 0.00 0.00 93 1017.6
20260502063557 55 330 0.0 0.0 0.00 0.00 0.00 92 1017.8
20260502063055 56 314 0.0 0.0 0.00 0.00 0.00 91 1017.5
20260502062552 56 333 0.0 0.0 0.00 0.00 0.00 89 1017.6
20260502062050 55 319 0.0 0.0 0.00 0.00 0.00 93 1017.3
20260502061547 55 319 0.0 0.0 0.00 0.00 0.00 92 1017.5
20260502061044 56 319 0.0 0.0 0.00 0.00 0.00 92 1017.2
20260502060539 55 320 0.0 0.0 0.00 0.00 0.00 92 1017.4
20260502060037 55 324 0.0 0.0 0.00 0.00 0.00 92 1017.3
20260502055534 56 324 0.0 0.0 0.00 0.00 0.00 91 1017.3
20260502055033 56 324 0.0 0.0 0.00 0.00 0.00 91 1017.4
20260502054531 56 324 0.0 0.0 0.00 0.00 0.00 91 1017.7
20260502054027 56 324 0.0 0.0 0.00 0.00 0.00 90 1017.4
20260502053524 56 297 0.0 0.0 0.00 0.00 0.00 90 1017.4
20260502053022 56 330 0.0 0.0 0.00 0.00 0.00 91 1017.4
20260502052520 56 283 0.0 0.0 0.00 0.00 0.00 91 1017.5
20260502052018 56 322 0.0 0.0 0.00 0.00 0.00 92 1017.6
20260502051516 56 281 0.0 0.0 0.00 0.00 0.00 91 1017.8
20260502051013 56 315 0.0 0.0 0.00 0.00 0.00 91 1017.8
20260502050509 56 314 0.0 0.0 0.00 0.00 0.00 91 1017.8
20260502050007 56 319 0.0 0.0 0.00 0.00 0.00 92 1017.6
20260502045503 55 319 0.0 0.0 0.00 0.00 0.00 92 1017.6
20260502045001 56 319 0.0 0.0 0.00 0.00 0.00 92 1017.3
20260502044456 56 319 0.0 0.0 0.00 0.00 0.00 91 1017.3
20260502043953 56 319 0.0 0.0 0.00 0.00 0.00 90 1017.1
20260502043451 57 319 0.0 0.0 0.00 0.00 0.00 91 1016.9
20260502042950 56 319 0.0 0.0 0.00 0.00 0.00 90 1016.9
20260502042447 57 319 0.0 0.0 0.00 0.00 0.00 89 1016.9
20260502041945 57 319 0.0 0.0 0.00 0.00 0.00 88 1017.1
20260502041443 58 319 0.0 0.0 0.00 0.00 0.00 87 1016.6
20260502040939 59 319 0.0 0.0 0.00 0.00 0.00 85 1016.6
20260502040436 59 319 0.0 0.0 0.00 0.00 0.00 82 1016.8
20260502035932 60 319 0.0 0.0 0.00 0.00 0.00 82 1016.6
20260502035428 60 325 0.0 0.0 0.00 0.00 0.00 81 1016.6
20260502034926 60 331 0.0 0.0 0.00 0.00 0.00 80 1016.4
20260502034425 60 331 0.0 0.0 0.00 0.00 0.00 79 1016.5
20260502033923 61 334 0.0 0.0 0.00 0.00 0.00 78 1016.3
20260502033420 61 334 0.0 0.0 0.00 0.00 0.00 77 1016.4
20260502032917 62 336 0.0 0.0 0.00 0.00 0.00 77 1016.2
20260502032413 62 333 0.0 0.0 0.00 0.00 0.00 77 1016.2
20260502031910 62 327 0.0 0.0 0.00 0.00 0.00 77 1016.3
20260502031409 63 336 0.0 0.0 0.00 0.00 0.00 76 1016.3
20260502030907 63 347 0.0 0.0 0.00 0.00 0.00 76 1016.5
20260502030404 64 330 0.0 0.0 0.00 0.00 0.00 75 1016.3
20260502025902 64 330 0.0 0.0 0.00 0.00 0.00 74 1016.3